FENGYUN 1C DEB, 38728

Orbit data source: Space-Track

FENGYUN 1C DEB, 38728 is space debris in SSO originally from a launch on Mon, 10 May 1999 UTC launched from the Taiyaun Space Center, China (TSC). Fengyun 1C debris stems from the Chinese weather satellite Fengyun-1C, which was intentionally destroyed by a Chinese anti-satellite missile in 2007. This event dramatically increased the amount of space debris, with thousands of trackable fragments posing hazards to satellites and human spaceflight. The Fengyun 1C debris cloud has become a focal point in discussions about space sustainability and the need for international regulations to prevent the creation of new debris.

Loading next visibility...
Identifier
38728, 1999-025ETV
Orbit
SSO
Country
Flag of CNCN / PRC
Related business
Manufacturer
Unknown
Mission
Spacecraft
Bus & Motor
Unknown
Mass
Unknown
Launch date (UTC)
1999-05-10 (27 years ago)
Launch vehicle
Unknown
Launch site
Taiyaun Space Center, China (TSC)
Object type
Payload
Rocket body
Debris
Shape & HBR
Unknown shape, 0.1 m
Radar Cross Section
Small (<0.1 m²)

Expand to show TLE details & history
Last TLE update: 2 days ago

TLE from 2 days ago
0 FENGYUN 1C DEB
1 38728U 99025ETV 26255.28405271  .00002844  00000-0  42521-3 0  9997
2 38728  99.2583 285.6905 0068212 290.7154 132.5317 14.74178463696376
Epoch: 2026-09-12T06:49Z
TLE epoch observation values (Epoch: 2026-09-12T06:49:02.154Z)
Latitude
62.43588°
Longitude
174.04057°
Altitude
691.011 km
Speed
7.499 km/s
True Right ascension
17h 50m 22s
True Declination
62° 17' 36"
Sunlit
Object was in daylight at epoch
Visualization orbit readout
Latitude
Unknown
Longitude
Unknown
Altitude
Unknown
Speed
Unknown
Apparent Right ascension
Unknown
Apparent Declination
Unknown
Sunlit
N/A
Visualization observer readout
Local Sidereal Time
21:29:52
Azimuth
Unknown
Elevation
Unknown
Doppler factor
Unknown
Orbital elements
Apogee altitude
692.78 km
Perigee altitude
596.969 km
Semi-major axis
7,023.011 km
Eccentricity
0.00682
Inclination
99.2583°
RAAN
285.6905°
Arg. of periapsis
290.7154°
True anomaly
133.10439°
Mean anomaly
132.5317°
Eccentric anomaly
132.81838°
Mean motion
3.68772 °/min
Orbital period
97.62 mins
BSTAR
0.00042521
Loading maneuver chart data...
Computing Atmospheric mass density...
Loading historical data...
Loading historical data...
Loading historical data...
Loading historical data...
Loading historical data...
Loading historical data...
Loading historical data...

Documentation

Showing up to 5 results
|